GPS BIIF-10 (40730 NORAD) Tracking and Keplerian Element Data

This shows tracking and keplerian element data for the satellite.

Feedback or suggestion? Click here.




ElementValue
Catalog40730
NameGPS BIIF-10
Epoch Orbit3372
Epoch Day52.29649917
Epoch Year2020
RAAN0.6466
Inclination55.5798
Eccentricity0.0052476
Argument of Perigee347.8881
Mean Anonmoly11.9751
Mean Motion2.00569154
Decay Rate-1.06E-06
L11 40730U 15033A 20052.29649917 -.00000106 00000-0 00000-0 0 9990
L22 40730 55.5798 0.6466 0052476 347.8881 11.9751 2.00569154 33721

Live tracking and technical data element details for GPS BIIF-10 (NORAD 40730). GPS BIIF-10 can be tracked NOW for your location showing map with azimuth and elevation plus other details from your city location.

Track the satellite on the map from your city or location and see movement details for azimuth, elevation, latitude, longitude, range, height, and movement on the map or in text.







IsCatalogInMostPopularTable: catalog: 40730, numindb: 416
Update: records affected: 1



GetName: 40730 GPS BIIF-10

Hit Count: updated at: Sun, 23 Feb 2020 06:32:15 GMT